TimeCST,TemperatureF,Dew PointF,Humidity,Sea Level PressureIn,VisibilityMPH,Wind Direction,Wind SpeedMPH,Gust SpeedMPH,PrecipitationIn,Events,Conditions,WindDirDegrees,DateUTC
12:13 AM,17.6,14.0,86,30.26,10.0,NNW,8.1,-,N/A,,Clear,340,2013-03-01 06:13:00
12:33 AM,17.6,14.0,86,30.26,10.0,NNW,5.8,-,N/A,,Mostly Cloudy,340,2013-03-01 06:33:00
12:53 AM,15.8,14.0,93,30.26,10.0,NNW,4.6,-,N/A,,Overcast,340,2013-03-01 06:53:00
1:13 AM,17.6,14.0,86,30.27,10.0,North,9.2,-,N/A,,Overcast,350,2013-03-01 07:13:00
1:33 AM,17.6,14.0,86,30.27,10.0,North,9.2,-,N/A,,Overcast,350,2013-03-01 07:33:00
1:53 AM,15.8,12.2,86,30.27,10.0,North,9.2,-,N/A,,Scattered Clouds,360,2013-03-01 07:53:00
2:13 AM,14.0,10.4,86,30.28,10.0,NNW,9.2,-,N/A,,Clear,340,2013-03-01 08:13:00
2:33 AM,12.2,10.4,92,30.28,10.0,North,9.2,-,N/A,,Clear,350,2013-03-01 08:33:00
3:13 AM,10.4,8.6,92,30.28,10.0,North,5.8,-,N/A,,Clear,10,2013-03-01 09:13:00
3:33 AM,10.4,8.6,92,30.28,10.0,North,3.5,-,N/A,,Clear,360,2013-03-01 09:33:00
3:53 AM,12.2,8.6,85,30.28,10.0,NNW,6.9,-,N/A,,Clear,330,2013-03-01 09:53:00
4:13 AM,10.4,6.8,85,30.29,10.0,NNW,8.1,-,N/A,,Clear,340,2013-03-01 10:13:00
4:34 AM,8.6,5.0,85,30.30,10.0,WNW,3.5,-,N/A,,Scattered Clouds,290,2013-03-01 10:34:00
4:53 AM,10.4,6.8,85,30.30,10.0,NNW,5.8,-,N/A,,Mostly Cloudy,340,2013-03-01 10:53:00
5:13 AM,8.6,5.0,85,30.31,10.0,North,4.6,-,N/A,,Scattered Clouds,360,2013-03-01 11:13:00
5:33 AM,8.6,6.8,92,30.31,10.0,NNE,6.9,-,N/A,,Clear,20,2013-03-01 11:33:00
5:53 AM,8.6,6.8,92,30.32,10.0,North,5.8,-,N/A,,Clear,10,2013-03-01 11:53:00
6:13 AM,6.8,3.2,85,30.32,10.0,NNW,6.9,-,N/A,,Clear,340,2013-03-01 12:13:00
6:33 AM,8.6,5.0,85,30.33,10.0,NNW,8.1,-,N/A,,Clear,340,2013-03-01 12:33:00
6:53 AM,5.0,1.4,85,30.33,10.0,NNE,5.8,-,N/A,,Clear,20,2013-03-01 12:53:00
7:13 AM,6.8,3.2,85,30.34,10.0,North,5.8,-,N/A,,Clear,10,2013-03-01 13:13:00
7:34 AM,5.0,1.4,85,30.34,10.0,NW,3.5,-,N/A,,Clear,320,2013-03-01 13:34:00
7:53 AM,6.8,3.2,85,30.35,10.0,North,4.6,-,N/A,,Clear,360,2013-03-01 13:53:00
8:33 AM,10.4,6.8,85,30.35,10.0,Calm,Calm,-,N/A,,Clear,0,2013-03-01 14:33:00
9:13 AM,14.0,8.6,79,30.36,10.0,Calm,Calm,-,N/A,,Clear,0,2013-03-01 15:13:00
9:33 AM,17.6,10.4,73,30.37,10.0,Calm,Calm,-,N/A,,Clear,0,2013-03-01 15:33:00
9:54 AM,19.4,12.2,74,30.37,10.0,NNE,3.5,-,N/A,,Clear,30,2013-03-01 15:54:00
10:13 AM,17.6,12.2,79,30.37,10.0,Calm,Calm,-,N/A,,Clear,0,2013-03-01 16:13:00
10:33 AM,19.4,12.2,74,30.38,10.0,Calm,Calm,-,N/A,,Clear,0,2013-03-01 16:33:00
10:53 AM,24.8,15.8,69,30.38,10.0,NE,5.8,-,N/A,,Clear,50,2013-03-01 16:53:00
11:13 AM,24.8,15.8,69,30.38,10.0,NE,6.9,-,N/A,,Clear,40,2013-03-01 17:13:00
11:34 AM,26.6,17.6,69,30.38,10.0,NE,8.1,-,N/A,,Clear,50,2013-03-01 17:34:00
11:53 AM,26.6,15.8,64,30.38,10.0,NE,8.1,-,N/A,,Clear,50,2013-03-01 17:53:00
12:13 PM,26.6,17.6,69,30.38,10.0,NNE,8.1,-,N/A,,Clear,30,2013-03-01 18:13:00
12:34 PM,26.6,15.8,64,30.38,10.0,NNE,4.6,-,N/A,,Clear,30,2013-03-01 18:34:00
12:53 PM,26.6,15.8,64,30.38,10.0,North,5.8,-,N/A,,Clear,360,2013-03-01 18:53:00
1:14 PM,26.6,17.6,69,30.37,10.0,NNW,6.9,-,N/A,,Scattered Clouds,340,2013-03-01 19:14:00
1:33 PM,26.6,17.6,69,30.37,10.0,NNW,6.9,-,N/A,,Scattered Clouds,340,2013-03-01 19:33:00
1:53 PM,26.6,17.6,69,30.36,10.0,NNW,8.1,-,N/A,,Clear,330,2013-03-01 19:53:00
2:13 PM,26.6,17.6,69,30.35,10.0,NNW,8.1,-,N/A,,Clear,340,2013-03-01 20:13:00
2:34 PM,26.6,17.6,69,30.35,10.0,North,5.8,-,N/A,,Clear,350,2013-03-01 20:34:00
2:54 PM,26.6,17.6,69,30.35,10.0,North,8.1,-,N/A,,Clear,350,2013-03-01 20:54:00
3:13 PM,26.6,17.6,69,30.36,10.0,NNW,8.1,-,N/A,,Clear,340,2013-03-01 21:13:00
3:33 PM,26.6,17.6,69,30.36,10.0,NNW,8.1,-,N/A,,Clear,340,2013-03-01 21:33:00
3:53 PM,26.6,17.6,69,30.36,10.0,NNW,9.2,-,N/A,,Clear,340,2013-03-01 21:53:00
4:13 PM,24.8,17.6,74,30.36,10.0,NW,6.9,-,N/A,,Clear,320,2013-03-01 22:13:00
4:33 PM,24.8,17.6,74,30.36,10.0,NNW,5.8,-,N/A,,Clear,330,2013-03-01 22:33:00
4:53 PM,24.8,17.6,74,30.36,10.0,NW,5.8,-,N/A,,Clear,320,2013-03-01 22:53:00
5:13 PM,21.2,17.6,86,30.37,10.0,NW,5.8,-,N/A,,Clear,320,2013-03-01 23:13:00
6:13 PM,17.6,14.0,86,30.38,10.0,NW,5.8,-,N/A,,Clear,320,2013-03-02 00:13:00
6:33 PM,15.8,12.2,86,30.38,10.0,NW,5.8,-,N/A,,Clear,310,2013-03-02 00:33:00
6:53 PM,15.8,12.2,86,30.38,10.0,NW,4.6,-,N/A,,Clear,320,2013-03-02 00:53:00
7:13 PM,15.8,12.2,86,30.38,10.0,Calm,Calm,-,N/A,,Clear,0,2013-03-02 01:13:00
7:34 PM,14.0,12.2,93,30.37,10.0,Calm,Calm,-,N/A,,Clear,0,2013-03-02 01:34:00
7:53 PM,12.2,10.4,92,30.37,10.0,Calm,Calm,-,N/A,,Clear,0,2013-03-02 01:53:00
8:13 PM,12.2,10.4,92,30.37,7.0,Calm,Calm,-,N/A,,Clear,0,2013-03-02 02:13:00
8:33 PM,12.2,10.4,92,30.38,7.0,NW,3.5,-,N/A,,Clear,320,2013-03-02 02:33:00
8:54 PM,8.6,6.8,92,30.38,3.0,Calm,Calm,-,N/A,,Clear,0,2013-03-02 02:54:00
9:13 PM,6.8,3.2,85,30.37,5.0,Calm,Calm,-,N/A,,Clear,0,2013-03-02 03:13:00
9:34 PM,6.8,3.2,85,30.37,4.0,Calm,Calm,-,N/A,,Clear,0,2013-03-02 03:34:00
9:54 PM,6.8,1.4,79,30.38,4.0,West,4.6,-,N/A,,Clear,270,2013-03-02 03:54:00
10:13 PM,5.0,1.4,85,30.38,5.0,WNW,3.5,-,N/A,,Clear,290,2013-03-02 04:13:00
10:33 PM,5.0,1.4,85,30.37,3.0,Calm,Calm,-,N/A,,Clear,0,2013-03-02 04:33:00
10:53 PM,3.2,1.4,92,30.37,1.8,West,4.6,-,N/A,,Clear,260,2013-03-02 04:53:00
11:13 PM,5.0,1.4,85,30.36,0.8,Calm,Calm,-,N/A,,Mist,0,2013-03-02 05:13:00
11:33 PM,5.0,1.4,85,30.35,0.2,Calm,Calm,-,N/A,Fog,Light Freezing Fog,0,2013-03-02 05:33:00
11:53 PM,6.8,1.4,79,30.36,0.8,West,3.5,-,N/A,,Mostly Cloudy,260,2013-03-02 05:53:00